Regional Weather Roundup
Issued by NWS Charleston, SC

Current Version | Previous Version | Graphics & Text | Print | Product List | Glossary On
Versions: 1 2 3 4 5 6 7 8 9 10 11 12 13 14 15 16 17 18 19 20 21 22 23 24 25 26 27 28 29 30 31 32 33 34 35 36 37 38 39 40 41 42 43 44 45 46 47 48 49 50
000
ASUS42 KCHS 030226
RWRCHS

REGIONAL WEATHER ROUNDUP
NATIONAL WEATHER SERVICE CHARLESTON SC
900 PM EST MON MAR 02 2015

NOTE: "FAIR" INDICATES FEW OR NO CLOUDS BELOW 12,000 FEET WITH NO
SIGNIFICANT WEATHER AND/OR OBSTRUCTIONS TO VISIBILITY.

NOT ALL STATIONS ARE QUALITY CONTROLLED BY THE NATIONAL
WEATHER SERVICE. USE DATA WITH CAUTION...ESPECIALLY
DEWPOINT OBSERVATIONS.

SCZ027-030-031-034>040-042>050-030300-
...SOUTHEAST SOUTH CAROLINA...

CITY           SKY/WX    TMP DP  RH WIND       PRES   REMARKS
N CHARLESTON   CLOUDY    57  52  83 E9        30.27R
WATERFRONT PRK   N/A     54 N/A N/A E7          N/A
MOUNT PLEASANT CLOUDY    55  54  94 CALM      30.28R
PINOPOLIS        N/A     61  54  77 E5        30.18R
MONCKS CORNER  CLOUDY    61  54  77 CALM      30.27R
SUMMERVILLE    CLOUDY    61  55  82 E3        30.28R
BEAUFORT MCAS  MOCLDY    57  54  89 S3        30.24R
BEAUFORT ARPT  CLOUDY    55  55 100 CALM      30.24S
HILTON HEAD IS MOCLDY    54  54 100 CALM      30.26R
WALTERBORO     CLOUDY    64  61  88 NE9       30.26R
ALLENDALE      FAIR      59  59 100 CALM      30.23R

...SOUTHERN MIDLANDS AND PEE DEE...

CITY           SKY/WX    TMP DP  RH WIND       PRES   REMARKS
GEORGETOWN     NOT AVBL
KINGSTREE      NOT AVBL
ORANGEBURG     CLOUDY    62  52  69 E6        30.26R
BARNWELL       CLOUDY    66  61  82 E8        30.25R
AIKEN          CLOUDY    63  54  72 E6        30.28S
MANNING        CLOUDY    61  43  51 CALM      30.28R
COLUMBIA       MOCLDY    61  53  75 E8        30.25R
SUMTER         CLOUDY    58  52  80 SE5       30.25R
FLORENCE       PTCLDY    53  49  86 E5        30.28R
MYRTLE BEACH   CLOUDY    55  50  82 E6        30.30S
N MYRTLE BEACH CLOUDY    50  48  93 CALM      30.29S FOG

$$

GAZ063-065-086>088-099>101-113>116-118-119-134>141-150-030300-
...SOUTHEAST GEORGIA...

CITY           SKY/WX    TMP DP  RH WIND       PRES   REMARKS
SAVANNAH ARPT  MOCLDY    62  58  86 CALM      30.24R
HUNTER AAF     CLEAR     63  61  92 SW1       30.22R
FORT STEWART   CLEAR     64  60  87 CALM      30.22R
STATESBORO     PTCLDY    57  57 100 CALM      30.24S
SYLVANIA       PTCLDY    59  59  99 CALM      30.24S
CLAXTON        FAIR      55  55 100 CALM      30.25R

...CSRA...CENTRAL AND FAR SOUTHEAST GEORGIA...

CITY           SKY/WX    TMP DP  RH WIND       PRES   REMARKS
THOMSON        CLOUDY    62  59  90 CALM      30.29R
AUGUSTA-BUSH   FAIR      59  55  87 CALM      30.22R
AUGUSTA-DANIEL FAIR      68  56  65 NW6       30.23R
SWAINSBORO     NOT AVBL
VIDALIA        CLEAR     63  61  94 SW3       30.25R
EASTMAN        FAIR      62  62 100 CALM      30.28R
HAZLEHURST     FAIR      62  62 100 CALM      30.24R
ALMA           PTCLDY    57  56  96 CALM      30.24S FOG
WAYCROSS       PTCLDY    63  62  98 CALM      30.25S
JESUP          FAIR      63  63 100 NW5       30.25R
BAXLEY         FAIR      61  59  94 CALM      30.24R
BRUNSWICK      CLEAR     59  57  94 CALM      30.26R
SAINT SIMONS   CLEAR     57  54  89 SW3       30.25R

$$

SCZ027-028-034-036>038-045-046-048>050-GAZ119-141-030300-
...LAKE AND SUPPLEMENTAL COASTAL OBSERVATIONS...

STATION/POSITION TIME  TEMP    WIND        PRES    WAVE   SWELL
                       AIR SEA DIR/SP/G            HT/PER HT/PER/DIR
                 (UTC) (F)     (DEG/KT/KT) (MB)    (FT/S) (FT/S/D)
UPR LAKE MARION  NOT AVBL
WINYAH BAY       0100   52      80/  3     1024.0
LAKE MURRAY      0100   59     130/  1/  3 1023.4R
ACE BASIN NERRS  NOT AVBL
FORT PULASKI     0200   56 49   CALM  /  1 1024.5R
SAPELO ISLAND    0200   59     170/  5     1024.0S

$$

ANZ835-935-AMZ111-154-330-350-352-354-370-450-454-472-030300-
...C-MAN AND BUOY OBSERVATIONS...

STATION/POSITION TIME  TEMP    WIND        PRES    WAVE   SWELL
                       AIR SEA DIR/SP/G            HT/PER HT/PER/DIR
                 (UTC) (F)     (DEG/KT/KT) (MB)    (FT/S) (FT/S/D)
BUOY 41004       0150   61 68   60/ 12/ 14 1024.5R   3/ 9   3/ 9
BUOY 41008       0150   56 54  210/  6/  8 1023.8R   2/10   2/110/10
FOLLY BEACH CMAN 0200   51      60/  4/  5 1025.5R
CAPERS NEARSHORE NOT AVBL
FRIPP NEARSHORE  0100   52      CALM  /  2 1023.1R


STATION/POSITION TIME  TEMP    WIND        PRES    WAVE   SWELL
                       AIR SEA DIR/SP/G            HT/PER HT/PER/DIR
                 (UTC) (F)     (DEG/KT/KT) (MB)    (FT/S) (FT/S/D)
5E ST. MARYS GA  0121      53                N/A     3/10
FRYING PAN BUOY  0150   58 62   70/ 17/ 21 1025.8R   3/ 8   2/140/ 8
BUOY 41025       NOT AVBL
CAPE LOOKOUT NC  0200   46      50/ 22/ 25 1027.3R
BUOY 41002       0150   69 73  350/ 16/ 21 1023.6R   5/ 9   3/120/ 9
BUOY 41010       0120   74 75  350/  4/  4 1024.2R
ST AUGUSTINE FL  0200   56     360/  5/  5 1025.1R


$$



USA.gov is the U.S. government's official web portal to all federal, state and local government web resources and services.